カタログに戻る

KUIPER-00612

運用中通信LEO
NORAD 69772·PAYLOAD·🇺🇸 United States

打ち上げ Jul 2, 2026 から Cape Canaveral Space Force Station

Loading…

次のパス (今後24時間)

TLE

最新Source: CelesTrak SupGP

元期: Sep 14, 2026, 17:00 UTC

1 69772C 26151K   26257.70873843 -.00000629  00000+0 -88986-4 0  2576
2 69772  51.8993 257.2300 0000791  45.5158 233.5477 14.76634927    13

AllMySatでKUIPER-00612をリアルタイム追跡

Download on the App Store